Torna al catalogo

COSMOS 839 DEB

AttivoUNKNOWN
NORAD 10616·DEBRIS·🇷🇺 Russia

Lanciato Jul 8, 1976 da Plesetsk Cosmodrome

Loading…

Prossimi Passaggi (prossime 24 ore)

TLE

AggiornatoSource: Space-Track

Epoca: Sep 13, 2026, 06:34 UTC

1 10616U 76067AQ  26256.27375051 -.00000088  00000-0 -80082-4 0  9991
2 10616  65.5984 317.9795 0715536  99.2576 269.0002 12.47877180281082

Traccia COSMOS 839 DEB in tempo reale con AllMySat

Download on the App Store